Location: Azul
(36.7830°S, 59.8500°W)
Time: 00:35:28
(UTC-03:00)

FO-29 - Pass Details

Date: 01 November 2021
Orbit: 799 x 1322 km, 98.5° (Epoch: 28 November)

Event Time Altitude Azimuth Distance (km) Brightness Sun altitude
Rises 20:18:35 0° 145° (SE) 4,271 12.8 -9.3°
Reaches altitude 10° 20:23:15 10° 120° (ESE) 3,347 12.0 -10.1°
Maximum altitude 20:26:45 13° 93° (E) 3,097 11.6 -10.7°
Enters shadow 20:28:46 12° 76° (ENE) 3,186 11.6 -11.1°
